User: anonymous   Login
Location: Weston
(26.1283°N, 80.4075°W)
Time: 20:49:00
(UTC-05:00)
Language:

H-2A R/B - Orbit

View from above orbital plane
View from above orbital plane
View from above satellite
View from above satellite

Ground track
Ground track

The orbit data is extracted from the following two-line orbital elements,

1 26899U 01038B   18055.17811574 +.00002048 +00000-0 +59485-3 0  9997
2 26899 028.3404 323.1432 7120319 354.6859 000.6664 02.48654796142749
Epoch (UTC): 24 February 2018 04:16:29
Eccentricity: 0.7120319
inclination: 28.3404°
perigee height: 249 km
apogee height: 33023 km
right ascension of ascending node: 323.1432°
argument of perigee: 354.6859°
revolutions per day: 2.48654796
mean anomaly at epoch: 0.6664°
orbit number at epoch: 14274

The dashed part of the orbit path shows where the satellite is in the earth's shadow,  

DLR